ONEWEB-0054, 45158

Orbit data source: Space-Track

ONEWEB-0054, 45158 is a payload satellite owned by One Web (UK) in LEO that was launched on Thu, 06 Feb 2020 UTC via a SOYUZ-2-1B launch vehicle from the Tyuratam Missile And Space Complex (TTMTR). Payloads include a variety of satellites, spacecraft, and rockets equipped with specific instruments for various scientific and technological missions. These include communications satellites like Starlink; space stations such as the ISS; scientific satellites like the Hubble; Earth observation satellites from companies like Planet Labs, Umbra, and HawkEye 360; GPS; miniature CubeSats for education and research; and military/defense satellites.

Loading next visibility...
ONEWEB-0054 details
Identifier
45158, 2020-008AD
Orbit
LEO
Last TLE update18 hours ago
Origin
Flag of UKOne Web (UK)
ManufacturerOne Web
MissionOperational Commercial Communications
Bus & MotorARROW, Unknown motor
Mass148 kg wet, ~140 kg dry
Launch date (UTC)
2020-02-06 (5 years ago)
Launch vehicle
SOYUZ-2-1B
Launch site
Tyuratam Missile And Space Complex (TTMTR)
Object type
Payload
Rocket body
Debris
Shape & HBRTrap Box + 2 Pan, 5 m
Radar Cross Section2.957 m², Large (>1 m²)

Expand to show TLE details & history

TLE from 18 hours ago
0 ONEWEB-0054
1 45158U 20008AD  24360.68599900  .00000171  00000-0  45253-3 0  9995
2 45158  87.8903 143.5337 0001527 100.2163 259.9137 13.10375367238267
Epoch: 2024-12-25T16:27Z
Definitive object data (Epoch: 2024-12-25T16:27:50.313Z)
Latitude0.00001°
Longitude161.89787°
Altitude1,224.798 km
Speed7.242 km/s
True Right ascension09h 34m 08s
True Declination0° 00' 00"
Sunlit
Object was in full shadow at TLE epoch
Visualization TLE readout
Latitude1.04818°
Longitude161.7848°
Altitude1,224.606 km
Speed7.242 km/s
Apparent Right ascension08h 32m 49s
Apparent Declination-53° 57' 51"
Sunlit
Object is in full shadow
Visualization observer readout
Local Sidereal Time10:08:56
Azimuth193.942° SSW
Elevation-6.129°
Doppler factor1
Orbital elements
Apogee altitude1,219.987 km
Perigee altitude1,217.667 km
Semi-major axis7,596.964 km
Eccentricity0.0001527
Inclination87.8903°
RAAN143.5337°
Arg. of periapsis100.2163°
True anomaly259.89647°
Mean anomaly259.9137°
Eccentric anomaly259.90509°
Mean motion3.2778 °/min
BSTAR0.00045253
Orbital period109.83 mins
Loading maneuver chart data...
Loading historical data...
Loading historical data...
Loading historical data...
Loading historical data...
Loading historical data...
Loading historical data...
Loading historical data...

ONEWEB-0054 Visibility forecast

Observer location: undefined°, undefined

Span
Click to sort rows by Start time (UTC) header in descending order
Start Az.
Max El. time (UTC)
Max El. Az.
Max El.
End time (UTC)
End Az.
14 mins2024-12-26 10:52:42.180Z202.77° SW2024-12-26 10:59:42.180Z276.933° WNW36.84°2024-12-26 11:06:42.180Z349.59° N
10 mins2024-12-26 20:34:42.180Z31.553° NE2024-12-26 20:39:42.180Z81.054° E22.197°2024-12-26 20:44:42.180Z126.328° SE
13 mins2024-12-26 22:23:42.180Z349.894° N2024-12-26 22:29:42.180Z277.287° WNW40.936°2024-12-26 22:36:42.180Z197.942° SSW
10 mins2024-12-27 08:54:42.180Z125.282° SE2024-12-27 08:59:42.180Z74.761° E24.685°2024-12-27 09:04:42.180Z26.961° NE
4 mins2024-12-27 10:43:42.180Z204.303° SW2024-12-27 10:47:42.180Z241.221° WSW36.539°2024-12-27 10:47:42.180Z241.221° WSW
|